,,,PA_Meas_PMT16A,,PR_Meas_QMR101_102,,RH_Meas_QMH101,,SR_Meas_QMS101,,TA_Meas_QMH101,,GenWind,,GenWind,
date,time,status,PA,status,PR,status,RH,status,SR,status,TA,status,DirAvg,status,SpdAvg,
2008-05-03, 00:00:04,VALID,1002.68,VALID,0,VALID,86.8319,VALID,0,VALID,25.9467,VALID,15,VALID,1.02031,
2008-05-03, 00:01:04,VALID,1002.69,VALID,0,VALID,86.8014,VALID,0,VALID,25.9057,VALID,12,VALID,0.989844,
2008-05-03, 00:02:04,VALID,1002.67,VALID,0,VALID,86.9082,VALID,0,VALID,25.8863,VALID,3,VALID,0.646094,
2008-05-03, 00:03:04,VALID,1002.69,VALID,0,VALID,86.9006,VALID,0,VALID,25.8882,VALID,25,VALID,1.17227,
2008-05-03, 00:04:04,VALID,1002.73,VALID,0,VALID,87.0455,VALID,0,VALID,25.8668,VALID,21,VALID,1.07578,
2008-05-03, 00:05:04,VALID,1002.71,VALID,0,VALID,87.1981,VALID,0,VALID,25.8687,VALID,19,VALID,0.966016,
2008-05-03, 00:06:04,VALID,1002.69,VALID,0,VALID,87.2973,VALID,0,VALID,25.8668,VALID,22,VALID,0.565234,
2008-05-03, 00:07:04,VALID,1002.68,VALID,0,VALID,87.3049,VALID,0,VALID,25.8687,VALID,33,VALID,1.13555,
2008-05-03, 00:08:04,VALID,1002.66,VALID,0,VALID,87.5185,VALID,0,VALID,25.8278,VALID,21,VALID,0.790625,
2008-05-03, 00:09:04,VALID,1002.64,VALID,0,VALID,87.6101,VALID,0,VALID,25.8473,VALID,21,VALID,1.35391,
2008-05-03, 00:10:04,VALID,1002.64,VALID,0,VALID,87.5338,VALID,0,VALID,25.8473,VALID,28,VALID,0.962109,
2008-05-03, 00:11:04,VALID,1002.63,VALID,0,VALID,87.5643,VALID,0,VALID,25.8882,VALID,30,VALID,0.937109,
2008-05-03, 00:12:04,VALID,1002.64,VALID,0,VALID,87.5414,VALID,0.100563,VALID,25.8843,VALID,24,VALID,0.735156,
2008-05-03, 00:13:04,VALID,1002.65,VALID,0,VALID,87.6101,VALID,0.100563,VALID,25.8453,VALID,13,VALID,0.866797,
2008-05-03, 00:14:04,VALID,1002.63,VALID,0,VALID,87.694,VALID,0.100563,VALID,25.8473,VALID,15,VALID,0.435156,
2008-05-03, 00:15:04,VALID,1002.6,VALID,0,VALID,87.9,VALID,0,VALID,25.8278,VALID,20,VALID,0.532812,
2008-05-03, 00:16:04,VALID,1002.6,VALID,0,VALID,88.0296,VALID,0,VALID,25.7694,VALID,12,VALID,0.649609,
2008-05-03, 00:17:04,VALID,1002.57,VALID,0,VALID,88.2204,VALID,0.100563,VALID,25.7889,VALID,23,VALID,0.714844,
2008-05-03, 00:18:04,VALID,1002.56,VALID,0,VALID,88.1899,VALID,0.100563,VALID,25.7694,VALID,35,VALID,0.962109,
2008-05-03, 00:19:04,VALID,1002.52,VALID,0,VALID,88.2967,VALID,0.100563,VALID,25.748,VALID,354,VALID,0.512891,
2008-05-03, 00:20:04,VALID,1002.52,VALID,0,VALID,88.434,VALID,0,VALID,25.7499,VALID,12,VALID,0.492969,
2008-05-03, 00:21:04,VALID,1002.52,VALID,0,VALID,88.5103,VALID,0,VALID,25.6895,VALID,40,VALID,0.896094,
2008-05-03, 00:22:04,VALID,1002.5,VALID,0,VALID,88.6552,VALID,0.100563,VALID,25.6895,VALID,24,VALID,0.386328,
2008-05-03, 00:23:04,VALID,1002.5,VALID,0,VALID,88.7544,VALID,0.100563,VALID,25.67,VALID,27,VALID,0.914844,
2008-05-03, 00:24:04,VALID,1002.47,VALID,0,VALID,88.5026,VALID,0,VALID,25.7499,VALID,38,VALID,1.69492,
2008-05-03, 00:25:04,VALID,1002.48,VALID,0,VALID,88.2738,VALID,0.100563,VALID,25.7889,VALID,20,VALID,1.10078,
2008-05-03, 00:26:04,VALID,1002.47,VALID,0,VALID,88.2738,VALID,0.100563,VALID,25.7674,VALID,24,VALID,0.654297,
2008-05-03, 00:27:04,VALID,1002.45,VALID,0,VALID,88.2661,VALID,0,VALID,25.7674,VALID,26,VALID,1.28594,
2008-05-03, 00:28:04,VALID,1002.47,VALID,0,VALID,88.1136,VALID,0.100563,VALID,25.8259,VALID,20,VALID,1.05977,
2008-05-03, 00:29:04,VALID,1002.43,VALID,0,VALID,88.0296,VALID,0,VALID,25.8668,VALID,32,VALID,0.753906,
2008-05-03, 00:30:04,VALID,1002.42,VALID,0,VALID,87.9152,VALID,0,VALID,25.8648,VALID,46,VALID,0.854297,
2008-05-03, 00:31:04,VALID,1002.41,VALID,0,VALID,87.9305,VALID,0,VALID,25.8648,VALID,25,VALID,0.727734,
2008-05-03, 00:32:04,VALID,1002.4,VALID,0,VALID,87.961,VALID,0,VALID,25.8668,VALID,20,VALID,0.828516,
2008-05-03, 00:33:04,VALID,1002.44,VALID,0,VALID,88.0602,VALID,0,VALID,25.8863,VALID,23,VALID,0.542578,
2008-05-03, 00:34:04,VALID,1002.4,VALID,0,VALID,88.0678,VALID,0,VALID,25.8863,VALID,31,VALID,0.907422,
2008-05-03, 00:35:04,VALID,1002.39,VALID,0,VALID,88.1593,VALID,0.100563,VALID,25.8863,VALID,15,VALID,0.8625,
2008-05-03, 00:36:04,VALID,1002.36,VALID,0,VALID,87.961,VALID,0.100563,VALID,25.8648,VALID,27,VALID,1.46328,
2008-05-03, 00:37:04,VALID,1002.35,VALID,0,VALID,87.9,VALID,0,VALID,25.9252,VALID,17,VALID,1.18555,
2008-05-03, 00:38:04,VALID,1002.33,VALID,0,VALID,87.8694,VALID,0,VALID,25.9447,VALID,10,VALID,1.01094,
2008-05-03, 00:39:04,VALID,1002.34,VALID,0,VALID,87.6787,VALID,0,VALID,25.9447,VALID,17,VALID,1.01641,
2008-05-03, 00:40:04,VALID,1002.32,VALID,0,VALID,87.7321,VALID,0.100563,VALID,25.9836,VALID,21,VALID,0.853516,
2008-05-03, 00:41:04,VALID,1002.32,VALID,0,VALID,87.5795,VALID,0,VALID,25.9622,VALID,15,VALID,0.917969,
2008-05-03, 00:42:04,VALID,1002.35,VALID,0,VALID,87.3659,VALID,0.100563,VALID,26.0031,VALID,25,VALID,1.70469,
2008-05-03, 00:43:04,VALID,1002.33,VALID,0,VALID,86.8319,VALID,0,VALID,26.0012,VALID,356,VALID,1.62617,
2008-05-03, 00:44:04,VALID,1002.35,VALID,0,VALID,86.8472,VALID,0,VALID,26.0596,VALID,28,VALID,0.786719,
2008-05-03, 00:45:04,VALID,1002.34,VALID,0,VALID,86.8014,VALID,0,VALID,26.1005,VALID,10,VALID,0.749219,
2008-05-03, 00:46:04,VALID,1002.33,VALID,0,VALID,86.4734,VALID,0,VALID,26.1005,VALID,40,VALID,1.53477,
2008-05-03, 00:47:04,VALID,1002.33,VALID,0,VALID,86.7175,VALID,0,VALID,26.12,VALID,9,VALID,0.554297,
2008-05-03, 00:48:04,VALID,1002.33,VALID,0,VALID,86.542,VALID,0,VALID,26.0985,VALID,28,VALID,0.895312,
2008-05-03, 00:49:04,VALID,1002.32,VALID,0,VALID,86.4123,VALID,0,VALID,26.1395,VALID,39,VALID,0.830078,
2008-05-03, 00:50:04,VALID,1002.34,VALID,0,VALID,86.42,VALID,0,VALID,26.159,VALID,21,VALID,0.552734,
2008-05-03, 00:51:04,VALID,1002.3,VALID,0,VALID,86.6641,VALID,0,VALID,26.1395,VALID,13,VALID,0.711328,
2008-05-03, 00:52:04,VALID,1002.29,VALID,0,VALID,86.9006,VALID,0,VALID,26.1005,VALID,16,VALID,0.584375,
2008-05-03, 00:53:04,VALID,1002.25,VALID,0,VALID,87.1523,VALID,0,VALID,26.0401,VALID,16,VALID,0.354688,
2008-05-03, 00:54:04,VALID,1002.23,VALID,0,VALID,87.2134,VALID,0,VALID,26.0012,VALID,14,VALID,0.858203,
2008-05-03, 00:55:04,VALID,1002.19,VALID,0,VALID,87.2896,VALID,0,VALID,25.9836,VALID,357,VALID,0.752734,
2008-05-03, 00:56:04,VALID,1002.18,VALID,0,VALID,87.2744,VALID,0,VALID,25.9642,VALID,37,VALID,1.25156,
2008-05-03, 00:57:04,VALID,1002.19,VALID,0,VALID,87.2668,VALID,0,VALID,25.9622,VALID,6,VALID,0.578516,
2008-05-03, 00:58:04,VALID,1002.13,VALID,0,VALID,87.3965,VALID,0,VALID,25.9642,VALID,34,VALID,0.624219,
2008-05-03, 00:59:04,VALID,1002.08,VALID,0,VALID,87.4499,VALID,0,VALID,25.9642,VALID,354,VALID,0.595703,
2008-05-03, 01:00:04,VALID,1002.08,VALID,0,VALID,87.5033,VALID,0,VALID,25.9642,VALID,11,VALID,0.706641,
2008-05-03, 01:01:04,VALID,1002.02,VALID,0,VALID,87.6253,VALID,0,VALID,25.9427,VALID,9,VALID,0.476172,
2008-05-03, 01:02:04,VALID,1002.01,VALID,0,VALID,87.6635,VALID,0,VALID,25.9447,VALID,360,VALID,0.68125,
2008-05-03, 01:03:04,VALID,1001.98,VALID,0,VALID,87.4956,VALID,0,VALID,25.9447,VALID,6,VALID,0.767187,
2008-05-03, 01:04:04,VALID,1001.93,VALID,0,VALID,87.4041,VALID,0,VALID,25.9427,VALID,1,VALID,0.822656,
2008-05-03, 01:05:04,VALID,1001.92,VALID,0,VALID,87.4727,VALID,0,VALID,25.9642,VALID,11,VALID,0.595703,
2008-05-03, 01:06:04,VALID,1001.88,VALID,0,VALID,87.4117,VALID,0,VALID,25.9427,VALID,29,VALID,1.08477,
2008-05-03, 01:07:04,VALID,1001.87,VALID,0,VALID,87.3278,VALID,0,VALID,25.9642,VALID,342,VALID,0.706641,
2008-05-03, 01:08:04,VALID,1001.82,VALID,0,VALID,87.282,VALID,0,VALID,25.9836,VALID,15,VALID,1.13828,
2008-05-03, 01:09:04,VALID,1001.81,VALID,0,VALID,87.076,VALID,0,VALID,25.9836,VALID,352,VALID,0.679297,
2008-05-03, 01:10:04,VALID,1001.78,VALID,0,VALID,87.2057,VALID,0,VALID,25.9836,VALID,25,VALID,1.09531,
2008-05-03, 01:11:04,VALID,1001.79,VALID,0,VALID,87.1981,VALID,0,VALID,25.9836,VALID,11,VALID,0.695313,
2008-05-03, 01:12:04,VALID,1001.78,VALID,0,VALID,87.2591,VALID,0,VALID,26.0031,VALID,10,VALID,0.910156,
2008-05-03, 01:13:04,VALID,1001.8,VALID,0,VALID,87.3202,VALID,0,VALID,25.9836,VALID,21,VALID,0.852734,
2008-05-03, 01:14:04,VALID,1001.76,VALID,0,VALID,87.2973,VALID,0,VALID,26.0051,VALID,18,VALID,0.808594,
2008-05-03, 01:15:04,VALID,1001.76,VALID,0,VALID,87.2668,VALID,0,VALID,25.9836,VALID,7,VALID,1.09648,
2008-05-03, 01:16:04,VALID,1001.74,VALID,0,VALID,87.343,VALID,0,VALID,25.9836,VALID,9,VALID,1.04141,
2008-05-03, 01:17:04,VALID,1001.69,VALID,0,VALID,87.3049,VALID,0,VALID,25.9642,VALID,356,VALID,1.10391,
2008-05-03, 01:18:04,VALID,1001.66,VALID,0,VALID,87.427,VALID,0,VALID,25.9642,VALID,10,VALID,0.852734,
2008-05-03, 01:19:04,VALID,1001.68,VALID,0,VALID,87.3202,VALID,0,VALID,25.9642,VALID,4,VALID,1.2793,
2008-05-03, 01:20:04,VALID,1001.68,VALID,0,VALID,87.2057,VALID,0,VALID,25.9642,VALID,22,VALID,1.03867,
2008-05-03, 01:21:04,VALID,1001.69,VALID,0,VALID,87.1828,VALID,0,VALID,25.9836,VALID,7,VALID,0.773047,
2008-05-03, 01:22:04,VALID,1001.67,VALID,0,VALID,87.0532,VALID,0,VALID,26.0031,VALID,352,VALID,0.665625,
2008-05-03, 01:23:04,VALID,1001.65,VALID,0,VALID,87.0913,VALID,0,VALID,26.0031,VALID,2,VALID,0.700781,
2008-05-03, 01:24:04,VALID,1001.69,VALID,0,VALID,87.16,VALID,0,VALID,25.9836,VALID,4,VALID,0.774609,
2008-05-03, 01:25:04,VALID,1001.64,VALID,0,VALID,87.2744,VALID,0,VALID,25.9642,VALID,358,VALID,0.476953,
2008-05-03, 01:26:04,VALID,1001.64,VALID,0,VALID,87.2057,VALID,0,VALID,25.9836,VALID,9,VALID,1.19141,
2008-05-03, 01:27:04,VALID,1001.65,VALID,0,VALID,87.2286,VALID,0,VALID,25.9836,VALID,16,VALID,0.744922,
2008-05-03, 01:28:04,VALID,1001.63,VALID,0,VALID,87.3659,VALID,0,VALID,25.9642,VALID,4,VALID,0.578516,
2008-05-03, 01:29:04,VALID,1001.63,VALID,0,VALID,87.2973,VALID,0,VALID,25.9447,VALID,24,VALID,1.04375,
2008-05-03, 01:30:04,VALID,1001.64,VALID,0,VALID,87.3507,VALID,0.100563,VALID,25.9447,VALID,11,VALID,0.962891,
2008-05-03, 01:31:04,VALID,1001.64,VALID,0,VALID,87.4193,VALID,0,VALID,25.9252,VALID,10,VALID,0.73125,
2008-05-03, 01:32:04,VALID,1001.62,VALID,0,VALID,87.3125,VALID,0,VALID,25.9447,VALID,6,VALID,0.635156,
2008-05-03, 01:33:04,VALID,1001.63,VALID,0,VALID,87.2439,VALID,0.100563,VALID,25.9447,VALID,16,VALID,0.856641,
2008-05-03, 01:34:04,VALID,1001.64,VALID,0,VALID,87.2134,VALID,0,VALID,25.9642,VALID,17,VALID,0.919922,
2008-05-03, 01:35:04,VALID,1001.63,VALID,0,VALID,87.1981,VALID,0,VALID,25.9642,VALID,16,VALID,0.642578,
2008-05-03, 01:36:04,VALID,1001.59,VALID,0,VALID,87.2973,VALID,0,VALID,25.9642,VALID,8,VALID,0.726953,
2008-05-03, 01:37:04,VALID,1001.57,VALID,0,VALID,87.2515,VALID,0,VALID,25.9836,VALID,355,VALID,0.896875,
2008-05-03, 01:38:04,VALID,1001.55,VALID,0,VALID,87.2973,VALID,0.100563,VALID,25.9447,VALID,24,VALID,0.958984,
2008-05-03, 01:39:04,VALID,1001.53,VALID,0,VALID,87.343,VALID,0,VALID,25.9447,VALID,3,VALID,0.758984,
2008-05-03, 01:40:04,VALID,1001.52,VALID,0,VALID,87.4422,VALID,0,VALID,25.9447,VALID,7,VALID,0.721875,
2008-05-03, 01:41:04,VALID,1001.46,VALID,0,VALID,87.4727,VALID,0,VALID,25.9038,VALID,6,VALID,1.14609,
2008-05-03, 01:42:04,VALID,1001.42,VALID,0,VALID,87.5567,VALID,0,VALID,25.9057,VALID,1,VALID,0.799609,
2008-05-03, 01:43:04,VALID,1001.41,VALID,0,VALID,87.5338,VALID,0,VALID,25.9057,VALID,7,VALID,1.42227,
2008-05-03, 01:44:04,VALID,1001.36,VALID,0,VALID,87.5948,VALID,0,VALID,25.9252,VALID,5,VALID,0.919531,
2008-05-03, 01:45:04,VALID,1001.37,VALID,0,VALID,87.4193,VALID,0,VALID,25.9252,VALID,351,VALID,1.41055,
2008-05-03, 01:46:04,VALID,1001.37,VALID,0,VALID,87.4651,VALID,0,VALID,25.9252,VALID,16,VALID,1.19766,
2008-05-03, 01:47:04,VALID,1001.38,VALID,0,VALID,87.427,VALID,0,VALID,25.9447,VALID,12,VALID,0.588672,
2008-05-03, 01:48:04,VALID,1001.39,VALID,0,VALID,87.4956,VALID,0,VALID,25.9252,VALID,12,VALID,1.26914,
2008-05-03, 01:49:04,VALID,1001.37,VALID,0,VALID,87.2439,VALID,0,VALID,25.9642,VALID,22,VALID,1.84141,
2008-05-03, 01:50:04,VALID,1001.37,VALID,0,VALID,87.0532,VALID,0,VALID,25.9836,VALID,17,VALID,1.26367,
2008-05-03, 01:51:04,VALID,1001.34,VALID,0,VALID,86.9464,VALID,0,VALID,25.9836,VALID,21,VALID,1.61016,
2008-05-03, 01:52:04,VALID,1001.33,VALID,0,VALID,87.0684,VALID,0,VALID,25.9836,VALID,15,VALID,0.780078,
2008-05-03, 01:53:04,VALID,1001.32,VALID,0,VALID,86.9998,VALID,0,VALID,25.9836,VALID,20,VALID,1.60273,
2008-05-03, 01:54:04,VALID,1001.32,VALID,0,VALID,87.0074,VALID,0,VALID,26.0031,VALID,18,VALID,1.14727,
2008-05-03, 01:55:04,VALID,1001.34,VALID,0,VALID,86.9235,VALID,0,VALID,26.0031,VALID,6,VALID,0.870703,
2008-05-03, 01:56:04,VALID,1001.3,VALID,0,VALID,86.8929,VALID,0,VALID,25.9836,VALID,7,VALID,0.792578,
2008-05-03, 01:57:04,VALID,1001.3,VALID,0,VALID,86.9845,VALID,0,VALID,25.9836,VALID,38,VALID,0.762109,
2008-05-03, 01:58:04,VALID,1001.29,VALID,0,VALID,87.1066,VALID,0,VALID,25.9642,VALID,19,VALID,0.426172,
2008-05-03, 01:59:04,VALID,1001.27,VALID,0,VALID,87.2591,VALID,0,VALID,25.9447,VALID,20,VALID,0.446484,
2008-05-03, 02:00:04,VALID,1001.26,VALID,0,VALID,87.2744,VALID,0,VALID,25.9252,VALID,15,VALID,0.794531,
2008-05-03, 02:01:04,VALID,1001.27,VALID,0,VALID,87.4651,VALID,0,VALID,25.9057,VALID,34,VALID,0.459766,
2008-05-03, 02:02:04,VALID,1001.24,VALID,0,VALID,87.4041,VALID,0,VALID,25.9057,VALID,1,VALID,0.726563,
2008-05-03, 02:03:04,VALID,1001.26,VALID,0,VALID,87.3965,VALID,0,VALID,25.8863,VALID,350,VALID,0.748828,
2008-05-03, 02:04:04,VALID,1001.18,VALID,0,VALID,87.3888,VALID,0,VALID,25.8648,VALID,359,VALID,0.646094,
2008-05-03, 02:05:04,VALID,1001.16,VALID,0,VALID,87.4575,VALID,0,VALID,25.8668,VALID,12,VALID,0.952344,
2008-05-03, 02:06:04,VALID,1001.14,VALID,0,VALID,87.5414,VALID,0,VALID,25.8473,VALID,359,VALID,0.684375,
2008-05-03, 02:07:04,VALID,1001.14,VALID,0,VALID,87.549,VALID,0,VALID,25.8668,VALID,5,VALID,1.05703,
2008-05-03, 02:08:04,VALID,1001.13,VALID,0,VALID,87.4651,VALID,0,VALID,25.8278,VALID,342,VALID,0.644141,
2008-05-03, 02:09:04,VALID,1001.11,VALID,0,VALID,87.5109,VALID,0,VALID,25.8259,VALID,360,VALID,0.617188,
2008-05-03, 02:10:04,VALID,1001.09,VALID,0,VALID,87.5185,VALID,0,VALID,25.8278,VALID,350,VALID,0.806641,
2008-05-03, 02:11:04,VALID,1001.08,VALID,0,VALID,87.6024,VALID,0,VALID,25.8278,VALID,358,VALID,0.504687,
2008-05-03, 02:12:04,VALID,1001.07,VALID,0,VALID,87.7169,VALID,0,VALID,25.8083,VALID,347,VALID,0.612891,
2008-05-03, 02:13:04,VALID,1001.02,VALID,0,VALID,87.7703,VALID,0,VALID,25.7889,VALID,341,VALID,0.665234,
2008-05-03, 02:14:04,VALID,1001.03,VALID,0,VALID,87.8237,VALID,0,VALID,25.7889,VALID,343,VALID,0.550391,
2008-05-03, 02:15:04,VALID,1001.01,VALID,0,VALID,87.8466,VALID,0,VALID,25.7694,VALID,347,VALID,0.615625,
2008-05-03, 02:16:04,VALID,1001.02,VALID,0,VALID,87.9762,VALID,0,VALID,25.7499,VALID,340,VALID,0.570703,
2008-05-03, 02:17:04,VALID,1001.03,VALID,0,VALID,88.0144,VALID,0,VALID,25.7304,VALID,355,VALID,0.683203,
2008-05-03, 02:18:04,VALID,1001,VALID,0,VALID,88.022,VALID,0,VALID,25.709,VALID,16,VALID,0.829687,
2008-05-03, 02:19:04,VALID,1000.99,VALID,0,VALID,88.0983,VALID,0,VALID,25.7304,VALID,358,VALID,0.870313,
2008-05-03, 02:20:04,VALID,1000.98,VALID,0,VALID,88.1212,VALID,0,VALID,25.709,VALID,327,VALID,0.646094,
2008-05-03, 02:21:04,VALID,1000.93,VALID,0,VALID,88.1593,VALID,0,VALID,25.7109,VALID,356,VALID,0.529297,
2008-05-03, 02:22:04,VALID,1000.96,VALID,0,VALID,88.1593,VALID,0,VALID,25.7499,VALID,46,VALID,0.385156,
2008-05-03, 02:23:04,VALID,1000.95,VALID,0,VALID,88.1517,VALID,0,VALID,25.7304,VALID,32,VALID,0.950781,
2008-05-03, 02:24:04,VALID,1000.92,VALID,0,VALID,88.1288,VALID,0,VALID,25.7304,VALID,35,VALID,0.725781,
2008-05-03, 02:25:04,VALID,1000.92,VALID,0,VALID,88.0296,VALID,0,VALID,25.7499,VALID,27,VALID,0.689062,
2008-05-03, 02:26:04,VALID,1000.91,VALID,0,VALID,87.9686,VALID,0,VALID,25.7499,VALID,28,VALID,1.29062,
2008-05-03, 02:27:04,VALID,1000.9,VALID,0,VALID,87.8313,VALID,0,VALID,25.8083,VALID,19,VALID,0.908594,
2008-05-03, 02:28:04,VALID,1000.89,VALID,0,VALID,87.755,VALID,0,VALID,25.8083,VALID,16,VALID,0.966797,
2008-05-03, 02:29:04,VALID,1000.86,VALID,0,VALID,87.7855,VALID,0,VALID,25.8298,VALID,9,VALID,0.484766,
2008-05-03, 02:30:04,VALID,1000.8,VALID,0,VALID,87.8084,VALID,0,VALID,25.8083,VALID,7,VALID,0.879297,
2008-05-03, 02:31:04,VALID,1000.81,VALID,0,VALID,87.755,VALID,0,VALID,25.8083,VALID,2,VALID,1.08203,
2008-05-03, 02:32:04,VALID,1000.81,VALID,0,VALID,87.6863,VALID,0,VALID,25.8083,VALID,2,VALID,1.17227,
2008-05-03, 02:33:04,VALID,1000.77,VALID,0,VALID,87.6024,VALID,0,VALID,25.8473,VALID,358,VALID,1.15469,
2008-05-03, 02:34:04,VALID,1000.79,VALID,0,VALID,87.5338,VALID,0,VALID,25.8668,VALID,5,VALID,0.650781,
2008-05-03, 02:35:04,VALID,1000.8,VALID,0,VALID,87.5185,VALID,0,VALID,25.8453,VALID,21,VALID,1.12266,
2008-05-03, 02:36:04,VALID,1000.81,VALID,0,VALID,87.5261,VALID,0.100563,VALID,25.8668,VALID,342,VALID,0.827344,
2008-05-03, 02:37:04,VALID,1000.83,VALID,0,VALID,87.5414,VALID,0,VALID,25.8668,VALID,2,VALID,0.735156,
2008-05-03, 02:38:04,VALID,1000.82,VALID,0,VALID,87.6253,VALID,0,VALID,25.8473,VALID,16,VALID,0.566797,
2008-05-03, 02:39:04,VALID,1000.8,VALID,0,VALID,87.6863,VALID,0,VALID,25.8278,VALID,16,VALID,0.557031,
2008-05-03, 02:40:04,VALID,1000.77,VALID,0,VALID,87.7016,VALID,0,VALID,25.8278,VALID,356,VALID,0.860547,
2008-05-03, 02:41:04,VALID,1000.78,VALID,0,VALID,87.7245,VALID,0,VALID,25.8278,VALID,13,VALID,0.325391,
2008-05-03, 02:42:04,VALID,1000.77,VALID,0,VALID,87.7855,VALID,0,VALID,25.8083,VALID,9,VALID,0.853125,
2008-05-03, 02:43:04,VALID,1000.78,VALID,0,VALID,87.7779,VALID,0,VALID,25.8278,VALID,12,VALID,1.05352,
2008-05-03, 02:44:04,VALID,1000.82,VALID,0,VALID,87.7245,VALID,0,VALID,25.8278,VALID,338,VALID,1.01055,
2008-05-03, 02:45:04,VALID,1000.8,VALID,0,VALID,87.7779,VALID,0,VALID,25.8278,VALID,8,VALID,0.875391,
2008-05-03, 02:46:04,VALID,1000.77,VALID,0,VALID,87.7321,VALID,0,VALID,25.8083,VALID,15,VALID,1.39922,
2008-05-03, 02:47:04,VALID,1000.77,VALID,0,VALID,87.7169,VALID,0,VALID,25.8278,VALID,7,VALID,1.11523,
2008-05-03, 02:48:04,VALID,1000.75,VALID,0,VALID,87.7474,VALID,0,VALID,25.8083,VALID,354,VALID,0.723047,
2008-05-03, 02:49:04,VALID,1000.75,VALID,0,VALID,87.7474,VALID,0,VALID,25.8083,VALID,360,VALID,0.890234,
2008-05-03, 02:50:04,VALID,1000.73,VALID,0,VALID,87.8237,VALID,0,VALID,25.8083,VALID,26,VALID,1.40273,
2008-05-03, 02:51:04,VALID,1000.77,VALID,0,VALID,87.8771,VALID,0,VALID,25.7889,VALID,4,VALID,0.550781,
2008-05-03, 02:52:04,VALID,1000.78,VALID,0,VALID,87.9305,VALID,0,VALID,25.748,VALID,360,VALID,0.753516,
2008-05-03, 02:53:04,VALID,1000.76,VALID,0,VALID,88.0068,VALID,0,VALID,25.7499,VALID,353,VALID,0.703906,
2008-05-03, 02:54:04,VALID,1000.76,VALID,0,VALID,88.1212,VALID,0,VALID,25.7304,VALID,7,VALID,0.733203,
2008-05-03, 02:55:04,VALID,1000.76,VALID,0,VALID,88.228,VALID,0,VALID,25.7109,VALID,349,VALID,0.827734,
2008-05-03, 02:56:04,VALID,1000.76,VALID,0,VALID,88.3119,VALID,0,VALID,25.7109,VALID,351,VALID,0.755469,
2008-05-03, 02:57:04,VALID,1000.74,VALID,0,VALID,88.4111,VALID,0,VALID,25.6525,VALID,343,VALID,0.705859,
2008-05-03, 02:58:04,VALID,1000.75,VALID,0,VALID,88.495,VALID,0,VALID,25.6136,VALID,346,VALID,0.564062,
2008-05-03, 02:59:04,VALID,1000.74,VALID,0,VALID,88.7544,VALID,0,VALID,25.5746,VALID,351,VALID,0.692578,
2008-05-03, 03:00:04,VALID,1000.76,VALID,0,VALID,89.0138,VALID,0,VALID,25.5376,VALID,350,VALID,0.692969,
2008-05-03, 03:01:04,VALID,1000.74,VALID,0,VALID,89.2808,VALID,0,VALID,25.4772,VALID,351,VALID,0.675,
2008-05-03, 03:02:04,VALID,1000.69,VALID,0,VALID,89.5249,VALID,0,VALID,25.3779,VALID,352,VALID,0.693359,
2008-05-03, 03:03:04,VALID,1000.71,VALID,0,VALID,89.7919,VALID,0,VALID,25.3409,VALID,351,VALID,0.721484,
2008-05-03, 03:04:04,VALID,1000.71,VALID,0,VALID,90.0742,VALID,0,VALID,25.2825,VALID,351,VALID,0.654688,
2008-05-03, 03:05:04,VALID,1000.68,VALID,0,VALID,90.2725,VALID,0,VALID,25.224,VALID,352,VALID,0.784375,
2008-05-03, 03:06:04,VALID,1000.69,VALID,0,VALID,90.4938,VALID,0,VALID,25.1851,VALID,353,VALID,0.762891,
2008-05-03, 03:07:04,VALID,1000.7,VALID,0,VALID,90.6998,VALID,0,VALID,25.1267,VALID,354,VALID,0.602344,
2008-05-03, 03:08:04,VALID,1000.68,VALID,0,VALID,90.8523,VALID,0,VALID,25.0663,VALID,354,VALID,0.539063,
2008-05-03, 03:09:04,VALID,1000.69,VALID,0,VALID,91.0278,VALID,0,VALID,25.0682,VALID,354,VALID,0.595703,
2008-05-03, 03:10:04,VALID,1000.72,VALID,0,VALID,91.0888,VALID,0,VALID,25.0682,VALID,9,VALID,0.558984,
2008-05-03, 03:11:04,VALID,1000.7,VALID,0,VALID,91.0888,VALID,0,VALID,25.0488,VALID,1,VALID,0.409375,
2008-05-03, 03:12:04,VALID,1000.7,VALID,0,VALID,91.1346,VALID,0,VALID,25.0488,VALID,355,VALID,0.558203,
2008-05-03, 03:13:04,VALID,1000.71,VALID,0,VALID,91.1804,VALID,0,VALID,25.0682,VALID,354,VALID,0.529688,
2008-05-03, 03:14:04,VALID,1000.68,VALID,0,VALID,91.0736,VALID,0,VALID,25.0682,VALID,339,VALID,0.758203,
2008-05-03, 03:15:04,VALID,1000.66,VALID,0,VALID,91.0736,VALID,0,VALID,25.0682,VALID,347,VALID,0.689062,
2008-05-03, 03:16:04,VALID,1000.64,VALID,0,VALID,91.0431,VALID,0,VALID,25.0682,VALID,349,VALID,0.8,
2008-05-03, 03:17:04,VALID,1000.64,VALID,0,VALID,91.0278,VALID,0,VALID,25.0488,VALID,345,VALID,0.840234,
2008-05-03, 03:18:04,VALID,1000.63,VALID,0,VALID,91.0659,VALID,0,VALID,25.0488,VALID,347,VALID,0.773047,
2008-05-03, 03:19:04,VALID,1000.64,VALID,0,VALID,91.1117,VALID,0,VALID,25.0293,VALID,352,VALID,0.827734,
2008-05-03, 03:20:04,VALID,1000.66,VALID,0,VALID,91.0736,VALID,0,VALID,25.0293,VALID,342,VALID,0.708594,
2008-05-03, 03:21:04,VALID,1000.65,VALID,0,VALID,91.0736,VALID,0,VALID,25.0293,VALID,339,VALID,0.622656,
2008-05-03, 03:22:04,VALID,1000.65,VALID,0,VALID,91.1117,VALID,0,VALID,25.0488,VALID,348,VALID,0.737109,
2008-05-03, 03:23:04,VALID,1000.66,VALID,0,VALID,91.1117,VALID,0,VALID,25.0274,VALID,344,VALID,0.683594,
2008-05-03, 03:24:04,VALID,1000.67,VALID,0,VALID,91.1193,VALID,0,VALID,25.0469,VALID,348,VALID,0.791016,
2008-05-03, 03:25:04,VALID,1000.63,VALID,0,VALID,91.1041,VALID,0,VALID,25.0682,VALID,352,VALID,0.780859,
2008-05-03, 03:26:04,VALID,1000.66,VALID,0,VALID,91.0583,VALID,0,VALID,25.1072,VALID,347,VALID,0.929688,
2008-05-03, 03:27:04,VALID,1000.66,VALID,0,VALID,90.9439,VALID,0,VALID,25.1072,VALID,352,VALID,0.975781,
2008-05-03, 03:28:04,VALID,1000.68,VALID,0,VALID,90.9286,VALID,0,VALID,25.0858,VALID,347,VALID,0.989062,
2008-05-03, 03:29:04,VALID,1000.74,VALID,0,VALID,90.8981,VALID,0.100563,VALID,25.1072,VALID,354,VALID,0.664453,
2008-05-03, 03:30:04,VALID,1000.71,VALID,0,VALID,90.9515,VALID,0,VALID,25.0682,VALID,357,VALID,0.958594,
2008-05-03, 03:31:04,VALID,1000.74,VALID,0,VALID,91.0659,VALID,0,VALID,25.0079,VALID,355,VALID,0.91875,
2008-05-03, 03:32:04,VALID,1000.75,VALID,0,VALID,91.2262,VALID,0,VALID,24.969,VALID,355,VALID,0.65,
2008-05-03, 03:33:04,VALID,1000.77,VALID,0,VALID,91.2796,VALID,0,VALID,24.9514,VALID,355,VALID,0.652344,
2008-05-03, 03:34:04,VALID,1000.73,VALID,0,VALID,91.5161,VALID,0,VALID,24.9125,VALID,359,VALID,0.496875,
2008-05-03, 03:35:04,VALID,1000.76,VALID,0,VALID,91.9433,VALID,0,VALID,24.893,VALID,11,VALID,1.0125,
2008-05-03, 03:36:04,VALID,1000.76,VALID,0,VALID,91.9662,VALID,0,VALID,24.9143,VALID,26,VALID,1.14727,
2008-05-03, 03:37:04,VALID,1000.77,VALID,0,VALID,92.0882,VALID,0,VALID,24.9106,VALID,19,VALID,0.96875,
2008-05-03, 03:38:04,VALID,1000.77,VALID,0,VALID,91.9738,VALID,0,VALID,25.0274,VALID,21,VALID,1.075,
2008-05-03, 03:39:04,VALID,1000.78,VALID,0,VALID,91.4703,VALID,0,VALID,25.1851,VALID,18,VALID,1.2625,
2008-05-03, 03:40:04,VALID,1000.8,VALID,0,VALID,90.8829,VALID,0,VALID,25.2825,VALID,20,VALID,1.76758,
2008-05-03, 03:41:04,VALID,1000.79,VALID,0,VALID,90.509,VALID,0,VALID,25.3409,VALID,16,VALID,0.817187,
2008-05-03, 03:42:04,VALID,1000.83,VALID,0,VALID,90.2268,VALID,0,VALID,25.3604,VALID,15,VALID,0.684766,
2008-05-03, 03:43:04,VALID,1000.86,VALID,0,VALID,90.0055,VALID,0,VALID,25.4402,VALID,30,VALID,1.38945,
2008-05-03, 03:44:04,VALID,1000.86,VALID,0,VALID,89.708,VALID,0,VALID,25.4577,VALID,32,VALID,1.13672,
2008-05-03, 03:45:04,VALID,1000.9,VALID,0,VALID,89.5478,VALID,0,VALID,25.4967,VALID,26,VALID,0.859766,